RH
11 13 17 26 30 37 30 33 18 18 17 17 18 18 23 32 31 31 45 54 53 55 54 93 96 97 92 81 74 70 58 49 61 36 39 27 36 15 19 10 6 5 4 2 3 3 7 28 66
11 14 21 30 32 40 38 27 18 18 18 18 17 18 20 25 31 36 51 52 50 50 54 58 96 92 77 67 56 55 31 13 16 8 11 20 26 18 20 16 8 5 4 2 2 3 4 18 50
11 16 24 46 42 28 32 20 19 18 17 15 17 20 22 24 28 33 35 38 44 45 40 39 86 76 60 42 32 18 8 6 7 11 16 23 27 22 28 22 20 14 7 3 2 2 3 4 22
14 19 22 37 32 31 23 20 20 19 16 15 16 23 24 24 24 30 32 36 39 36 27 55 58 35 29 18 12 6 6 10 16 21 25 25 28 26 30 28 24 22 20 11 4 2 1 3 2
20 23 34 29 24 20 19 21 18 19 17 16 17 19 24 26 24 29 32 35 35 24 30 38 32 14 12 7 5 6 12 24 27 28 27 24 26 26 28 30 25 25 23 22 16 7 2 1 2
29 30 29 22 24 18 19 19 17 17 16 16 16 23 24 28 24 24 30 33 27 17 24 24 20 14 8 7 6 15 27 28 27 26 23 22 21 21 20 21 21 22 22 22 22 19 9 3 1
37 36 28 29 26 18 17 18 17 16 15 15 15 26 26 27 30 25 28 30 20 21 21 16 13 11 9 8 13 27 28 29 28 25 23 22 21 20 18 19 18 18 17 16 19 21 21 14 4
30 45 35 27 28 21 18 16 14 12 12 11 15 22 22 24 29 29 31 22 19 20 20 12 10 9 8 12 25 30 30 30 26 22 20 17 16 15 14 13 13 14 15 16 15 15 20 21 16
24 29 24 19 25 19 17 16 13 12 11 10 12 12 16 21 29 30 26 22 20 18 18 11 10 11 12 20 29 32 31 28 22 19 17 16 14 13 12 11 11 11 12 12 12 14 15 18 21
28 25 17 23 21 21 20 17 15 13 12 11 12 11 16 21 24 24 19 16 17 16 14 11 12 13 15 26 31 32 28 24 21 17 16 14 12 10 9 8 8 7 8 11 10 10 10 14 15
30 26 28 23 24 23 20 19 16 12 14 12 11 11 15 22 24 21 17 13 11 13 13 12 13 14 18 29 33 30 26 22 19 17 16 14 11 10 8 7 6 6 6 8 8 9 8 8 9
15 22 20 22 20 16 21 19 18 16 13 12 11 11 14 20 20 19 17 14 14 14 12 14 16 17 22 30 34 29 24 22 19 18 16 14 11 9 8 7 6 6 6 6 7 6 6 7 6
18 22 18 18 15 15 16 17 18 16 16 15 14 12 14 18 19 20 18 16 17 15 13 15 17 20 27 32 33 28 24 22 20 19 16 13 11 10 10 9 8 7 6 5 5 6 6 6 5
20 18 19 18 19 20 24 25 25 20 22 18 15 14 14 16 17 20 21 19 18 16 14 15 18 23 29 34 32 28 25 23 21 19 16 14 13 12 12 12 11 10 9 7 6 5 5 5 5
20 25 29 27 24 26 28 32 30 25 22 18 18 18 17 17 20 19 20 20 17 16 16 16 20 27 32 35 33 29 26 23 22 19 16 15 15 15 15 15 14 13 11 10 8 7 6 5 5
31 34 30 29 34 28 31 40 30 26 31 32 20 18 18 18 18 21 23 22 18 20 21 24 24 31 36 34 31 29 27 24 22 20 18 17 17 17 17 17 16 15 14 12 11 10 8 7 5
36 28 34 36 44 38 33 43 36 33 36 39 33 18 18 20 20 22 23 21 19 25 25 25 28 34 36 32 30 30 27 24 23 22 20 19 19 19 19 19 19 18 16 15 13 12 11 9 7
25 32 35 41 44 47 47 50 47 38 24 27 32 36 30 17 16 18 20 22 26 28 29 28 33 37 34 32 33 31 26 24 24 23 22 21 21 21 21 22 22 21 19 17 16 14 14 12 9
35 38 42 45 48 50 48 62 54 37 21 26 29 34 34 24 19 21 23 26 30 30 31 32 36 38 31 33 34 30 24 25 24 24 25 23 22 22 23 25 25 24 22 20 18 17 16 15 13
39 43 48 45 47 54 62 66 51 30 21 28 29 27 34 25 18 22 27 31 32 32 32 35 39 33 31 35 36 29 27 27 27 26 27 26 24 24 25 26 28 27 26 23 20 19 18 18 17
40 47 48 49 57 60 74 55 41 23 21 24 25 26 22 25 19 22 27 32 34 35 33 40 38 31 35 41 38 33 29 28 27 27 29 28 26 26 26 28 30 30 29 28 25 22 21 20 19
38 45 48 54 69 68 67 62 48 32 25 27 27 26 26 23 22 23 27 32 33 35 38 42 35 31 39 40 37 33 27 28 28 31 31 30 28 28 28 29 31 32 32 31 29 27 24 22 22
45 49 56 60 88 91 69 78 57 45 32 25 29 25 26 26 25 25 27 30 30 36 39 39 32 33 44 42 40 35 29 29 30 31 32 32 30 30 30 30 32 34 34 33 32 30 27 25 25
49 68 64 78 88 87 77 73 67 52 34 24 27 25 22 26 25 27 28 31 33 38 40 38 36 39 42 42 41 38 32 30 31 33 33 33 34 33 33 33 35 36 36 35 32 29 28 27 27
59 58 64 59 74 65 75 79 68 44 28 25 28 27 25 26 25 26 29 32 36 37 38 38 38 43 44 44 45 43 37 34 34 34 35 35 36 38 37 38 38 37 36 33 31 30 30 30 29
60 65 68 36 60 53 71 80 69 32 36 36 34 35 27 26 29 30 34 36 37 36 36 38 43 49 52 52 55 52 45 42 41 41 42 43 42 41 40 38 36 34 33 33 34 33 33 31 29
66 84 66 85 91 96 76 69 57 31 53 66 70 53 48 35 29 32 36 38 36 34 36 44 51 57 65 67 65 58 52 50 49 45 42 43 58 74 74 50 41 39 38 37 36 33 30 28 26
70 70 74 88 79 99 82 86 79 37 63 85 87 79 74 70 49 35 34 35 36 41 51 63 76 78 76 74 69 64 58 50 45 47 69 84 94 88 74 56 44 39 37 35 33 29 28 28 26
90 84 91 84 90 92 96 82 85 76 80 93 84 77 70 63 64 63 52 41 55 66 77 82 81 79 78 74 66 58 59 71 79 81 81 73 64 60 51 42 36 33 32 33 33 32 32 34 32
88 80 85 84 78 97 96 90 90 89 93 94 84 84 75 73 72 68 70 70 75 83 84 82 82 78 72 69 73 83 85 75 60 49 50 47 44 34 34 35 34 34 34 35 35 34 39 39 38
Wind_Speed
6 6 7 3 4 4 2 4 1 3 2 2 2 3 3 4 3 4 15 14 17 16 14 14 11 10 8 6 6 7 7 8 10 10 12 12 13 13 13 13 13 12 11 8 6 6 3 2 4
6 7 5 2 4 2 4 3 4 3 4 11 6 3 2 1 3 8 20 17 13 14 13 12 12 10 8 7 6 7 8 9 10 10 11 12 12 12 12 12 12 11 10 10 6 5 4 0 3
7 7 2 4 4 4 5 4 4 2 11 3 3 2 2 1 5 11 9 18 17 14 12 12 12 10 8 7 7 8 8 9 10 10 10 10 10 10 10 10 11 11 10 9 9 6 4 1 2
6 4 4 4 4 5 4 2 6 6 3 4 3 3 2 3 3 13 17 18 16 14 13 13 12 10 9 8 8 9 9 9 8 8 7 7 7 8 8 9 9 9 9 8 9 8 5 1 1
5 2 4 2 4 4 2 3 13 5 3 4 6 2 1 6 7 14 18 17 15 15 13 12 11 10 9 9 9 9 9 9 7 7 6 7 7 6 7 8 8 9 9 8 8 7 8 5 1
3 3 3 2 4 3 1 5 6 4 3 5 3 6 4 9 7 13 16 16 13 11 12 12 11 10 9 9 9 9 8 8 7 7 7 8 7 8 7 7 7 8 8 8 8 8 8 8 6
5 4 4 3 3 2 3 9 4 5 5 5 4 5 3 12 12 13 15 14 13 11 11 13 11 10 9 9 9 9 8 7 7 6 7 8 8 8 8 8 8 8 8 9 8 8 8 8 9
2 4 3 2 2 3 1 6 1 6 6 3 8 4 4 18 19 17 16 15 13 12 12 13 11 10 10 10 9 8 7 6 5 6 8 8 9 9 9 10 9 9 8 9 9 8 8 8 8
3 4 1 2 3 1 1 2 1 2 3 7 9 4 2 19 23 22 22 21 18 16 14 14 12 11 11 9 9 8 6 5 5 7 9 9 10 10 10 10 10 9 9 9 8 8 8 8 8
4 3 5 0 0 2 4 2 2 2 3 6 9 10 8 21 24 25 27 25 22 19 17 15 14 12 11 10 8 7 6 6 6 8 9 9 10 11 12 12 11 11 11 10 8 8 8 7 7
2 3 2 1 1 3 3 4 3 2 5 12 10 16 15 25 26 25 25 23 19 16 17 16 15 14 12 10 8 7 7 6 7 8 8 9 10 11 11 12 12 12 11 10 9 8 6 6 6
2 1 0 0 1 2 2 7 6 9 7 4 6 11 19 25 27 26 25 23 20 18 15 16 16 14 13 11 9 7 7 7 6 7 8 9 10 11 12 13 14 14 14 13 12 10 9 8 7
2 1 0 1 2 3 6 6 6 16 15 17 14 10 17 23 24 24 21 20 19 18 17 17 16 15 13 11 10 8 7 6 6 7 7 8 10 11 13 14 15 16 16 15 14 13 11 8 8
1 0 1 2 3 3 3 3 6 3 14 9 13 12 14 19 23 23 24 23 23 19 18 17 16 15 13 11 10 8 6 5 5 6 7 8 10 11 13 14 15 16 17 18 17 16 15 13 9
1 1 1 5 4 3 8 2 4 10 10 8 8 13 16 20 23 23 21 24 22 20 18 18 17 16 14 12 11 9 6 5 5 5 6 7 9 11 12 14 15 15 16 17 16 16 16 13 12
4 4 5 2 10 3 4 7 2 8 18 17 10 12 16 20 22 21 20 22 21 19 20 18 18 17 15 14 12 9 7 6 5 4 5 6 7 10 12 13 14 15 16 17 16 16 16 16 14
7 1 2 7 6 4 4 8 4 26 15 13 12 13 14 18 21 21 20 21 21 20 20 19 19 18 16 14 12 10 8 7 6 4 4 4 6 9 11 12 14 15 15 16 17 18 18 18 17
2 2 3 5 4 4 5 8 8 14 11 11 10 14 15 16 18 18 18 19 19 20 17 17 18 19 17 15 13 11 10 8 6 4 3 3 6 8 10 11 13 14 15 15 16 17 18 19 18
4 1 3 4 2 6 1 7 10 11 10 16 18 6 12 16 13 15 16 18 19 20 19 19 21 20 18 16 14 12 10 8 6 4 2 2 4 6 8 10 12 13 14 16 17 17 17 17 18
2 1 5 4 3 1 6 10 4 4 4 9 15 10 5 10 13 16 18 20 21 19 19 21 21 19 16 14 12 11 10 9 8 6 3 1 2 4 6 9 11 12 14 15 16 16 17 18 19
2 3 1 2 7 2 7 5 2 1 3 11 13 12 3 8 14 18 21 20 20 20 20 20 19 17 15 13 13 11 11 10 9 7 5 4 3 4 6 8 10 12 13 14 14 15 15 16 16
2 3 2 2 4 3 5 4 4 1 4 5 13 13 11 3 12 17 20 21 19 17 18 19 19 17 15 13 12 11 10 10 9 9 7 6 6 6 7 8 10 11 13 13 14 14 13 13 13
2 2 1 3 4 4 1 3 6 1 1 4 8 11 9 5 10 17 20 19 17 17 18 18 17 16 13 12 11 10 10 10 10 9 8 8 8 8 9 11 11 12 13 13 13 13 12 11 10
3 3 4 4 2 2 4 4 4 4 3 0 3 8 11 5 5 16 20 18 18 18 18 18 17 16 14 12 11 10 10 10 9 9 9 9 9 10 11 13 14 15 14 14 13 13 12 12 11
4 4 3 5 3 5 3 2 7 2 2 1 3 8 11 10 2 15 21 22 20 19 17 16 15 14 12 11 10 9 9 9 10 10 10 10 10 10 12 14 15 16 16 14 13 12 12 12 13
2 6 5 6 3 3 1 6 5 3 8 10 9 8 10 14 8 6 16 21 20 17 15 15 14 12 10 10 9 8 8 9 9 9 9 9 9 10 12 15 17 17 16 16 15 15 15 15 15
3 3 3 6 2 3 3 6 3 5 5 9 11 14 13 12 11 5 8 16 17 15 14 12 9 8 7 7 7 8 9 9 8 8 8 8 10 14 18 18 17 17 17 17 18 18 18 19 18
3 1 3 3 1 5 5 5 5 7 5 4 4 9 9 9 8 5 5 10 12 12 12 10 8 7 7 7 7 7 8 8 9 9 11 15 19 19 18 18 19 19 19 20 21 22 22 24 23
1 1 3 3 4 5 3 5 3 4 6 6 5 7 7 6 5 4 4 9 11 13 13 12 11 9 7 5 5 5 7 10 13 16 18 18 18 18 20 22 23 23 23 23 25 26 27 28 27
2 4 4 4 5 2 2 7 2 7 5 4 5 6 6 6 6 4 6 9 14 16 15 13 11 8 6 5 6 10 13 13 12 14 16 19 21 23 25 26 27 27 27 27 28 29 30 31 31
Wind_Direction
157 159 160 152 62 62 270 262 138 154 179 163 178 155 171 76 146 196 149 159 156 171 166 166 163 159 152 133 111 94 81 79 74 69 63 58 51 46 46 44 45 42 35 37 46 39 29 155 202
165 158 154 111 89 75 268 248 215 197 137 123 98 80 49 101 120 149 154 155 162 174 172 173 160 158 146 130 112 98 90 84 78 66 60 54 49 45 43 43 45 42 41 33 43 69 53 83 208
167 162 153 95 110 181 212 215 170 124 149 150 120 73 121 155 177 166 166 165 164 170 175 170 159 153 144 126 113 103 92 79 72 69 63 56 50 50 42 38 42 43 41 33 23 47 76 48 263
159 151 66 91 216 241 209 171 165 134 183 198 168 101 136 183 184 174 163 161 163 171 170 167 160 152 138 122 112 104 99 90 80 79 67 57 52 53 44 36 33 36 33 31 27 20 46 87 17
152 106 67 83 260 268 279 182 163 158 180 176 173 203 153 158 164 170 167 164 170 170 169 166 159 148 132 119 115 115 111 101 95 82 62 52 49 44 38 38 27 26 21 18 23 17 20 28 27
95 86 71 215 252 274 313 175 154 171 185 164 188 152 174 182 171 167 169 165 172 180 168 167 162 147 128 123 123 119 109 95 85 78 73 65 56 47 35 23 25 26 12 6 10 11 11 17 13
125 90 201 195 256 287 224 174 183 185 173 227 188 142 216 186 178 172 167 171 175 178 175 172 164 149 135 133 128 121 106 95 83 77 67 55 50 48 38 29 24 26 17 7 8 1 9 5 23
123 89 151 255 203 260 141 171 229 186 223 220 187 207 220 182 174 175 175 180 182 179 180 178 169 153 144 140 134 124 114 99 82 75 68 53 43 42 37 32 26 22 25 21 13 6 2 360 17
132 64 216 253 157 258 184 224 224 225 201 195 203 205 220 178 177 181 182 185 186 184 183 183 176 165 156 149 144 136 125 109 85 69 59 50 44 42 41 38 33 29 25 32 24 19 10 7 6
91 112 221 171 95 288 317 310 308 252 224 229 226 224 205 185 189 191 193 192 190 188 184 182 178 172 166 160 156 142 130 115 91 75 65 55 47 43 39 37 35 26 26 34 33 28 18 11 360
119 172 172 227 238 291 289 298 270 229 249 235 233 224 198 190 195 200 201 204 197 186 188 183 179 178 174 169 160 145 135 116 96 82 68 55 47 45 42 39 35 34 28 31 37 32 17 12 17
117 115 153 342 343 344 288 307 301 237 255 276 287 251 211 199 203 206 205 201 196 195 191 187 183 182 178 176 168 154 136 120 102 83 67 55 51 51 47 42 38 34 34 30 31 32 25 12 10
84 171 347 327 337 295 289 273 264 282 299 271 269 233 218 208 208 209 211 207 203 202 196 192 191 185 182 179 173 160 145 128 109 91 75 62 54 51 49 43 38 34 32 30 31 33 34 27 10
123 163 337 6 346 331 313 282 330 331 329 314 245 234 218 217 213 208 208 208 208 206 204 198 192 189 186 183 177 171 158 134 117 96 78 63 55 52 49 44 39 33 31 28 23 25 29 24 17
76 49 22 16 11 360 336 40 208 344 9 340 257 233 223 219 216 218 218 212 210 208 205 202 194 191 188 187 184 180 170 153 129 104 81 64 55 50 45 41 38 35 33 31 26 21 24 26 14
40 51 9 358 8 18 37 270 226 4 332 307 291 241 228 222 224 222 221 218 211 208 204 198 195 192 189 188 189 190 182 167 145 122 93 71 52 41 36 35 33 32 30 26 21 23 21 23 19
10 276 322 322 32 316 30 284 252 329 341 316 277 250 242 228 226 223 220 214 211 207 201 198 195 192 189 190 193 195 192 181 166 143 110 77 52 38 30 26 25 26 25 22 20 15 17 18 19
268 340 288 255 338 354 286 269 297 335 356 345 316 254 249 236 226 218 212 208 210 203 202 204 197 191 192 194 198 201 200 191 180 168 136 67 41 30 23 20 19 17 18 20 18 17 13 13 17
116 153 253 265 15 340 316 295 300 323 3 1 5 320 221 228 222 210 205 202 198 198 203 203 198 194 198 201 204 208 206 200 198 196 170 47 26 17 14 11 8 6 9 12 14 12 10 11 12
119 253 279 283 19 28 358 306 286 323 11 5 2 14 224 218 206 200 197 198 201 206 204 202 198 199 201 208 212 215 216 216 217 222 220 247 340 358 358 356 356 358 1 3 4 6 9 12 16
221 195 236 258 326 58 325 326 6 237 14 23 27 23 16 206 198 194 195 197 202 207 205 200 198 200 205 212 214 223 228 229 232 235 242 260 297 319 330 339 341 345 349 352 354 358 4 7 15
272 83 78 357 36 278 23 275 290 330 345 15 23 23 25 229 202 196 195 198 204 204 200 198 200 203 210 213 219 227 234 241 242 240 247 267 282 295 306 319 325 329 334 338 342 346 352 359 1
178 64 96 103 92 50 352 75 266 283 198 344 17 25 28 18 222 203 199 201 198 198 201 203 207 210 213 218 226 233 237 243 248 247 252 262 271 285 298 307 313 317 319 324 329 333 337 343 346
136 96 57 60 92 21 236 124 270 194 168 88 27 36 33 35 209 206 206 201 197 196 202 206 210 214 219 227 236 242 246 249 249 251 259 268 278 288 295 304 310 311 311 315 319 322 323 324 327
83 63 330 351 4 223 184 15 248 198 68 64 96 33 36 38 103 206 204 199 198 199 203 210 215 222 231 241 250 256 258 257 255 257 261 268 277 286 291 296 300 300 302 306 307 307 308 308 310
134 143 159 231 226 273 321 240 261 98 81 85 85 71 60 51 57 184 203 202 200 203 208 213 219 228 246 263 270 268 260 257 257 260 266 273 279 287 293 297 297 294 294 294 296 298 298 297 298
171 184 144 100 57 56 235 287 293 117 60 75 84 83 69 62 62 89 183 198 200 207 212 218 228 244 252 245 246 250 255 257 258 263 265 267 280 292 298 295 290 290 290 290 289 291 292 291 290
142 139 67 3 274 258 270 273 232 185 161 122 76 78 75 76 78 89 147 192 202 203 205 204 203 204 213 232 248 260 267 269 267 266 275 288 296 295 290 292 290 288 288 289 289 287 287 286 286
57 342 38 124 159 199 276 253 214 178 158 154 107 78 74 74 101 117 172 196 196 193 188 184 185 196 209 233 258 273 280 287 291 295 301 302 300 295 293 291 289 288 287 285 285 286 286 286 285
133 200 155 145 247 220 221 266 355 137 138 161 127 105 78 82 87 117 166 163 166 167 168 174 182 200 220 255 289 304 303 301 297 296 294 294 293 292 291 290 290 288 286 284 283 284 284 284 283